This is the latest recevied weather packets stored in our database for station/object K8RRT. If no packets are shown the sender has not sent any weather packets the latest 10 day(s).
| Time | Temp. | Humidity | Pressure | Rain* | Wind** | Luminosity | Snow |
|---|---|---|---|---|---|---|---|
| 1777807491 | 0.56° C | 99% | 1015.9 hPa | 0 mm | - | 41 W/m² | - |
| 1777807186 | 0° C | 99% | 1016.1 hPa | 0 mm | - | 52 W/m² | - |
| 1777806884 | 0° C | 99% | 1015.9 hPa | 0 mm | - | 49 W/m² | - |
| 1777806580 | -0.56° C | 99% | 1016.1 hPa | 0 mm | - | 33 W/m² | - |
| 1777806276 | -1.11° C | 99% | 1015.9 hPa | 0 mm | - | 23 W/m² | - |
| 1777805973 | -1.11° C | 99% | 1015.9 hPa | 0 mm | - | 17 W/m² | - |
| 1777805670 | -1.67° C | 99% | 1015.9 hPa | 0 mm | - | 13 W/m² | - |
| 1777805367 | -1.67° C | 99% | 1015.7 hPa | 0 mm | - | 10 W/m² | - |
| 1777805065 | -1.67° C | 99% | 1015.6 hPa | 0 mm | - | 7 W/m² | - |
| 1777804762 | -2.22° C | 99% | 1015.7 hPa | 0 mm | - | 5 W/m² | - |
| 1777804460 | -1.67° C | 99% | 1015.5 hPa | 0 mm | - | 3 W/m² | - |
| 1777804157 | -1.67° C | 99% | 1015.5 hPa | 0 mm | - | 1 W/m² | - |
| 1777803855 | -1.11° C | 99% | 1015.4 hPa | 0 mm | - | 0 W/m² | - |
| 1777803549 | -1.67° C | 99% | 1015.1 hPa | 0 mm | - | 0 W/m² | - |
| 1777803248 | -1.67° C | 99% | 1015.4 hPa | 0 mm | - | 0 W/m² | - |
| 1777802944 | -1.67° C | 99% | 1015.5 hPa | 0 mm | - | 0 W/m² | - |
| 1777802643 | -1.67° C | 99% | 1015 hPa | 0 mm | - | 0 W/m² | - |
| 1777802339 | -1.67° C | 99% | 1014.9 hPa | 0 mm | - | 0 W/m² | - |
| 1777802038 | -1.11° C | 99% | 1015.4 hPa | 0 mm | - | 0 W/m² | - |
| 1777801735 | -1.11° C | 99% | 1015 hPa | 0 mm | - | 0 W/m² | - |
| 1777801432 | -1.11° C | 99% | 1015.2 hPa | 0 mm | - | 0 W/m² | - |
| 1777801129 | -1.11° C | 99% | 1015.1 hPa | 0 mm | - | 0 W/m² | - |
| 1777800826 | -1.11° C | 99% | 1015.2 hPa | 0 mm | - | 0 W/m² | - |
| 1777800526 | -1.11° C | 99% | 1015.1 hPa | 0 mm | - | 0 W/m² | - |
| 1777800223 | -1.11° C | 99% | 1015.2 hPa | 0 mm | - | 0 W/m² | - |
* Rain latest hour (hover to see other rain measurements)
** Current wind speed in m/s (hover to see current wind gust speed)